Theta_e
298 298 298 298 298 297 298 298 298 298 297 298 298 298 298 297 297 300 298 297 296 296 296 297 300 303 307 313 318 320 319 321 321 318 316 307 308 312 314 319 320 323 323 323 324
298 298 298 299 298 298 298 298 298 298 298 300 299 297 298 298 298 297 297 297 297 296 297 298 303 307 308 311 312 315 317 313 308 305 307 304 307 307 310 313 317 317 321 321 321
298 298 298 298 298 298 298 298 298 299 300 299 299 298 298 299 299 296 297 297 297 297 297 298 302 305 306 304 303 307 309 301 303 302 301 303 304 307 312 311 311 308 311 316 319
298 298 298 298 298 298 298 299 298 298 298 300 299 299 299 299 295 296 296 297 297 298 298 298 300 300 298 298 302 305 300 300 300 298 298 301 300 299 307 308 304 301 304 311 316
298 298 298 298 299 299 299 299 299 299 299 299 299 300 301 297 295 296 296 297 297 298 298 298 297 296 295 298 300 298 300 300 299 297 297 298 297 298 301 301 301 299 301 304 307
298 297 297 298 299 299 299 299 299 299 299 299 299 299 299 294 295 296 296 297 297 298 297 296 298 298 298 298 298 299 300 296 296 296 297 297 296 298 306 298 297 297 297 298 300
297 297 298 298 298 298 299 299 299 300 299 299 299 298 297 295 295 295 296 297 297 297 297 297 297 298 297 297 297 298 296 294 295 295 296 297 297 298 298 296 296 296 296 297 298
297 298 298 297 298 298 299 298 299 299 299 298 298 298 296 296 296 297 296 297 298 298 297 297 296 296 295 296 295 293 292 293 294 295 296 296 294 297 297 296 295 295 296 296 298
297 297 297 298 298 298 299 299 298 298 299 298 298 298 297 297 298 297 296 296 297 297 296 296 297 295 295 291 291 291 293 293 293 294 296 296 296 296 296 295 295 295 296 297 298
297 298 298 298 299 299 299 299 298 298 298 298 298 298 297 297 296 297 296 297 296 296 297 296 295 293 292 290 293 293 293 293 293 293 296 296 295 295 295 295 295 296 297 298 299
297 297 297 297 298 298 299 298 298 298 298 296 296 296 296 296 296 296 297 297 296 295 293 294 294 294 293 294 293 293 293 293 292 295 296 295 295 295 294 296 296 296 299 298 300
297 297 297 297 298 298 298 298 298 296 295 295 295 295 295 296 296 296 296 297 295 293 292 291 293 293 294 295 296 295 294 293 293 294 296 295 294 294 294 295 296 296 298 298 297
296 297 297 297 297 297 297 297 297 296 296 295 295 295 295 296 295 294 295 295 294 294 292 292 294 294 295 295 296 296 295 294 294 294 293 293 292 292 294 295 297 298 297 298 297
296 296 296 297 297 296 296 295 296 298 289 294 295 295 295 295 294 294 294 295 294 294 294 292 293 294 295 296 296 296 295 295 293 295 294 293 294 293 294 293 295 296 297 298 298
296 296 296 296 296 296 295 295 296 298 296 294 295 295 295 295 294 294 294 295 295 295 292 293 293 294 295 297 296 296 294 293 295 294 294 293 293 293 293 294 294 295 296 297 297
297 298 297 297 296 296 296 296 298 296 294 290 293 294 295 294 293 294 294 296 295 294 292 293 293 294 295 296 296 294 294 292 291 292 290 293 293 293 293 295 293 295 295 297 297
298 298 297 297 297 296 295 296 298 297 290 290 289 293 294 293 293 292 292 293 293 291 289 290 293 292 293 293 293 293 291 292 294 292 294 292 293 294 294 294 293 294 295 296 297
299 299 298 298 297 296 295 295 296 289 285 291 293 291 293 292 292 291 292 290 293 289 286 289 294 293 293 293 292 295 291 292 291 294 293 293 294 296 294 295 295 295 295 295 295
299 299 299 299 297 296 294 290 294 289 291 292 292 288 284 289 290 291 288 288 292 287 289 286 291 291 293 292 292 293 290 292 290 290 291 292 292 293 294 293 293 294 295 295 295
299 300 299 299 298 296 291 294 288 292 292 292 293 290 286 283 289 287 286 287 292 292 289 287 289 292 292 292 292 293 291 290 287 287 290 292 293 294 294 294 293 292 293 294 294
300 299 298 299 298 295 289 285 285 293 293 292 292 288 289 288 285 283 286 286 291 291 290 282 287 292 290 289 292 292 291 288 287 291 292 294 293 291 293 293 291 291 293 293 293
299 296 297 299 295 284 283 283 290 292 293 293 292 292 291 288 287 287 286 288 292 294 293 289 284 290 290 290 290 291 291 290 289 289 291 294 293 293 292 291 291 292 293 293 293
299 298 296 297 290 284 284 289 291 291 292 291 291 293 292 291 290 290 290 292 292 293 291 290 284 286 293 288 288 287 291 293 291 290 289 290 293 291 290 291 294 293 293 293 293
299 294 294 295 292 288 284 288 290 291 292 292 291 292 292 292 291 286 291 292 291 294 295 293 287 290 293 292 284 285 284 292 289 287 291 293 294 295 294 293 293 293 293 293 293
299 297 296 293 292 288 289 290 291 291 291 292 292 291 290 288 292 291 291 292 292 293 295 290 287 286 289 291 288 291 291 289 291 293 291 295 293 294 294 293 293 293 293 292 292
299 297 294 291 291 289 288 290 292 291 290 290 290 292 290 289 292 292 292 291 292 292 293 290 287 284 286 290 291 291 291 291 292 292 292 292 292 293 293 293 292 292 292 293 292
299 299 298 292 288 289 290 293 292 292 292 293 292 292 292 292 293 292 293 293 292 292 293 289 286 281 285 287 287 290 290 291 290 290 292 291 293 292 292 292 292 293 292 291 292
Wind_Speed
16 16 16 18 20 22 25 23 21 22 24 9 16 24 26 32 32 19 35 23 23 21 16 8 2 8 10 7 6 6 3 2 1 4 6 17 11 14 20 13 21 10 22 13 21
14 15 16 17 19 20 25 24 18 19 26 11 8 3 11 16 27 40 27 23 24 24 19 12 10 10 7 5 6 5 3 4 3 4 4 16 9 19 11 19 18 29 23 29 35
13 14 14 15 18 15 18 23 23 16 18 24 9 3 6 5 16 29 27 25 27 26 18 11 10 11 10 10 10 6 3 4 6 13 14 10 11 16 10 4 19 33 40 35 35
12 13 13 14 15 17 15 17 17 22 26 15 19 26 15 2 5 22 24 23 24 27 19 23 8 6 7 5 7 5 6 7 9 17 17 9 11 21 8 11 23 27 30 29 28
10 11 11 12 12 13 13 11 12 16 19 26 22 11 18 26 16 17 19 19 20 27 33 22 26 10 6 4 5 5 5 6 8 17 16 18 21 14 9 20 31 39 38 32 31
9 9 9 10 11 10 10 10 10 10 9 18 19 28 14 19 19 16 15 15 21 25 28 33 13 15 13 4 4 1 3 7 14 19 12 17 14 8 8 36 43 43 42 40 39
5 6 9 10 8 8 10 13 10 13 11 10 12 10 34 19 16 13 11 14 16 19 29 24 19 7 5 3 5 2 2 5 8 13 7 24 7 3 24 35 39 42 41 42 37
4 5 6 6 6 7 7 7 10 10 11 11 6 10 11 18 14 11 8 8 12 13 17 15 25 18 9 3 7 5 5 5 4 14 8 12 9 10 26 38 38 36 45 43 40
1 2 4 5 6 7 7 6 6 14 4 4 7 4 5 13 20 16 16 10 7 15 16 10 16 17 10 4 4 7 1 2 9 7 5 8 12 13 34 26 31 35 40 42 43
4 3 4 6 7 9 8 5 3 11 4 2 7 5 7 10 19 20 8 13 8 0 4 17 11 4 5 5 3 3 5 5 5 6 7 12 15 23 30 23 25 34 33 33 34
4 4 3 5 6 8 9 4 4 2 16 11 8 5 5 8 10 20 10 5 7 12 6 9 9 5 5 2 4 3 3 4 4 3 13 7 18 21 24 21 24 28 24 31 34
6 4 4 5 6 8 8 4 6 3 5 6 7 7 8 8 6 20 12 4 10 5 5 6 4 5 6 2 2 1 1 3 9 2 7 7 20 14 11 13 17 23 21 27 31
6 5 3 3 3 5 9 9 5 3 2 3 5 6 7 7 6 14 15 6 7 6 6 6 2 10 2 2 6 2 3 5 5 12 5 10 7 6 6 11 21 21 28 27 24
8 7 5 4 1 4 7 6 4 1 5 5 4 5 5 3 2 11 10 6 5 3 3 2 3 4 3 3 4 4 3 6 9 7 3 7 5 6 6 10 7 23 29 29 19
8 9 6 3 2 3 4 5 3 1 4 1 2 3 3 3 5 8 9 5 2 1 4 2 3 4 3 3 3 6 8 6 2 2 3 4 1 9 4 5 8 19 28 23 19
5 6 8 4 2 2 4 4 2 6 5 3 2 4 1 6 5 8 5 6 2 2 4 1 3 2 3 4 2 12 3 1 3 2 3 3 2 6 4 5 6 14 29 22 21
7 6 6 4 2 2 3 1 5 4 4 5 1 4 2 5 4 8 5 6 4 5 7 6 1 3 3 4 2 6 5 4 7 6 4 5 5 11 10 11 6 9 22 22 25
7 6 5 4 2 1 2 4 4 2 6 2 2 3 3 6 4 6 2 3 3 3 4 4 6 2 5 2 2 4 2 4 4 3 6 6 7 7 6 20 23 13 17 22 31
9 7 6 4 4 2 2 4 8 7 6 8 2 5 5 3 1 3 3 3 2 2 5 3 5 2 1 2 2 2 4 2 3 2 2 4 6 11 8 8 12 16 21 27 37
10 7 8 7 6 4 5 6 3 2 6 3 6 3 4 3 2 3 1 3 2 1 1 4 4 1 1 1 4 1 5 2 3 2 5 6 7 7 9 10 10 12 24 35 40
8 5 6 10 8 3 4 7 4 6 4 4 6 4 4 4 4 2 3 4 4 3 4 4 3 3 3 2 6 1 1 5 3 3 3 4 7 9 14 12 9 17 30 32 37
7 3 7 13 5 2 3 6 4 6 7 2 2 2 6 6 4 2 5 6 12 11 6 5 4 4 7 2 2 2 5 5 4 4 4 2 11 5 8 7 11 20 35 38 38
7 5 9 17 3 3 2 3 4 5 5 3 5 3 2 6 1 5 5 4 15 10 6 7 1 4 6 4 4 3 4 4 3 2 8 4 8 3 3 8 28 32 33 38 41
8 2 5 15 7 5 5 4 4 9 4 5 4 4 3 4 2 4 4 4 14 11 7 11 3 6 6 6 4 4 4 9 6 4 4 16 24 30 25 18 23 35 40 40 44
14 9 9 5 7 9 7 7 5 6 7 10 1 6 8 4 4 6 5 3 8 11 8 5 6 5 10 13 7 21 15 11 19 22 9 17 13 27 25 21 31 36 40 36 39
16 9 9 6 5 12 8 9 12 5 10 6 6 12 8 8 10 10 8 5 6 5 7 5 3 2 5 11 11 20 22 18 25 23 23 29 32 33 46 41 31 34 33 36 37
34 23 10 10 9 6 7 8 15 15 15 9 20 7 11 21 18 1 9 5 10 9 8 6 3 2 6 2 7 12 10 12 7 7 9 12 17 14 12 15 21 29 37 35 35
Wind_Direction
64 62 55 54 54 53 43 46 50 43 34 75 111 86 70 61 56 73 50 18 3 3 6 4 130 135 124 101 100 121 83 181 12 15 314 347 349 338 335 324 320 307 312 320 327
66 62 60 57 56 58 53 51 51 39 39 81 156 123 36 46 46 49 38 28 15 9 18 43 92 129 85 67 42 61 103 35 59 334 314 319 316 319 337 330 315 321 311 313 319
62 58 57 58 57 64 58 51 51 46 43 52 59 299 311 358 35 20 26 25 21 15 25 38 85 89 66 48 22 21 74 332 7 357 340 311 334 338 319 318 340 341 323 318 316
61 55 57 52 51 54 57 54 52 54 50 52 50 52 46 42 65 11 17 22 31 34 49 60 94 70 70 56 29 97 24 11 4 4 0 3 353 329 324 327 333 334 330 324 325
60 52 48 53 50 47 51 53 42 44 53 55 50 63 66 66 36 18 18 24 39 42 47 54 58 69 83 84 72 70 339 358 353 5 8 358 333 291 272 332 325 324 323 323 318
52 50 48 48 47 43 36 33 16 6 26 40 44 49 76 66 24 13 22 34 46 47 51 51 54 81 84 87 87 228 235 339 19 12 37 354 304 306 241 329 325 324 323 317 317
52 43 39 38 38 43 39 27 25 46 30 20 35 43 54 53 34 25 23 37 47 52 51 42 41 100 93 57 24 28 35 23 4 2 36 344 317 308 317 325 323 324 323 321 313
33 28 28 29 23 10 357 2 34 1 314 12 24 51 72 45 34 51 55 45 49 46 43 43 44 58 46 72 14 31 51 10 5 358 15 13 272 280 325 323 318 321 327 324 320
330 7 10 6 5 357 351 339 310 347 14 29 32 89 69 30 33 27 30 41 70 57 44 24 40 38 23 43 31 6 313 320 316 22 3 22 280 302 315 317 312 320 327 329 326
296 323 352 357 356 358 357 351 346 17 32 79 43 83 46 7 20 20 27 39 51 10 44 42 56 65 7 43 45 317 350 302 248 324 345 307 282 311 314 321 314 326 341 346 346
282 303 337 360 3 4 5 3 14 10 53 68 50 70 32 12 25 18 24 28 52 52 47 33 55 19 306 21 169 183 198 272 260 298 340 306 301 301 312 329 331 331 347 2 6
275 288 319 355 10 19 20 59 71 132 68 60 48 43 32 15 10 15 19 42 38 51 352 43 44 284 269 288 182 168 274 296 295 269 344 331 301 295 306 316 318 325 344 1 8
279 290 303 332 14 25 42 61 68 98 94 24 29 22 15 14 37 1 16 30 44 52 22 91 281 314 277 336 28 54 69 340 287 324 6 330 297 314 303 333 352 350 336 344 354
293 302 307 321 308 23 46 47 59 74 75 302 5 13 354 355 54 13 20 29 44 91 69 90 320 312 328 48 22 4 159 305 304 9 314 18 293 303 290 314 318 333 339 337 334
304 307 301 314 330 36 32 32 64 81 24 209 314 317 360 69 336 359 21 36 76 79 95 254 339 328 347 352 357 261 305 289 256 115 36 355 302 271 294 308 317 326 328 326 328
292 316 305 305 316 30 31 16 72 43 258 308 284 332 13 25 25 352 18 38 63 93 37 306 321 275 300 325 292 275 330 95 86 125 36 186 107 276 271 246 292 321 325 317 316
280 301 304 282 290 359 3 354 33 127 355 288 276 23 69 6 18 24 28 14 25 27 15 337 287 311 315 311 297 354 9 352 2 8 249 173 328 252 276 278 233 296 319 318 317
260 283 286 266 253 300 320 49 106 212 221 335 32 46 72 357 31 354 64 68 23 59 83 62 330 29 353 20 284 356 51 127 217 284 287 310 224 254 236 292 298 299 319 322 325
240 268 280 249 216 213 332 59 205 197 163 150 74 59 321 354 64 29 43 176 202 170 121 79 285 321 360 324 10 326 48 194 119 99 321 259 278 284 287 285 290 311 322 326 328
238 257 259 231 204 172 81 248 211 209 136 166 159 146 191 264 43 57 14 220 179 109 166 217 331 168 294 306 23 24 167 63 26 11 299 281 286 246 284 283 302 307 313 321 324
219 260 215 196 176 166 167 223 250 213 200 161 175 143 182 183 155 209 225 278 210 147 116 136 104 270 48 187 174 142 342 45 115 150 211 294 253 209 247 264 283 303 311 310 310
196 259 190 170 136 132 175 200 177 186 199 227 128 110 170 161 146 204 219 218 188 164 160 198 143 260 236 222 318 290 203 165 130 247 234 260 267 227 229 260 292 291 305 309 308
200 203 189 179 174 218 241 255 233 167 201 164 177 176 174 169 139 189 201 208 182 171 166 182 270 336 339 0 357 215 197 199 101 120 206 165 260 312 294 286 303 304 307 308 311
184 157 188 196 233 150 142 225 218 200 188 171 154 129 127 177 222 190 233 212 196 197 185 166 170 197 207 220 132 264 204 201 161 182 199 228 281 286 290 299 300 303 306 309 314
197 227 191 185 232 193 182 163 161 187 210 189 243 206 167 158 152 227 195 191 190 204 170 154 212 187 256 277 247 267 254 205 215 227 223 262 265 275 287 300 296 296 299 306 312
180 179 187 175 159 164 189 215 183 175 155 228 218 190 182 173 187 193 161 192 201 169 154 173 257 129 263 260 277 275 263 240 239 242 253 259 271 271 278 281 285 292 302 311 312
203 207 192 172 161 143 205 200 203 156 210 200 208 136 197 230 204 69 172 167 177 159 178 153 158 42 266 5 312 284 252 206 190 216 217 222 245 277 286 289 291 302 305 306 312